User: anonymous   Login
Location: Unspecified
(0.0000°N, 0.0000°E)
Time: 09:03:42
(UTC+00:00)
Language:

RAX-2 - Orbit

View from above orbital plane
View from above orbital plane
View from above satellite
View from above satellite

Ground track
Ground track

The orbit data is extracted from the following two-line orbital elements,

1 37853U 11061D   24113.92420969  .00102885  00000-0  20386-2 0  9992
2 37853 101.6849 239.3666 0081884 196.5436 163.3122 15.43037112683388
Epoch (UTC): 22 April 2024 22:10:51
Eccentricity: 0.0081884
inclination: 101.6849°
perigee height: 381 km
apogee height: 493 km
right ascension of ascending node: 239.3666°
argument of perigee: 196.5436°
revolutions per day: 15.43037112
mean anomaly at epoch: 163.3122°
orbit number at epoch: 68338

The dashed part of the orbit path shows where the satellite is in the earth's shadow,  

DLR